Location: Bennemühlen
(52.5740°N, 9.7135°E)
Time: 17:20:38
(UTC+00:00)

Tiros 1 despin weight - Pass Details

Date: 21 February 2026
Orbit: 556 x 593 km, 48.2° (Epoch: 11 March)

Event Time Altitude Azimuth Distance (km) Brightness Sun altitude
Rises 12:16:39 0° 192° (SSW) 2,743 ? 26.3°
Reaches altitude 10° 12:20:45 10° 153° (SSE) 1,844 ? 26.2°
Maximum altitude 12:21:38 11° 140° (SE) 1,806 ? 26.2°
Drops below altitude 10° 12:22:31 10° 128° (SE) 1,843 ? 26.2°
Sets 12:26:37 0° 89° (E) 2,737 ? 26.0°
